,,PA_Meas_PMT16A,,PR_Meas_QMR101_102,,RH_Meas_QMH101,,SR_Meas_QMS101,,TA_Meas_QMH101,,GenWind,,GenWind,
time,status,PA,status,PR,status,RH,status,SR,status,TA,status,DirAvg,status,SpdAvg,
2012-01-13, 00:00:04,VALID,917.759,VALID,0,VALID,95.5976,VALID,0,VALID,20.3643,VALID,343,VALID,0,
2012-01-13, 00:01:04,VALID,917.788,VALID,0,VALID,95.6586,VALID,0,VALID,20.3838,VALID,343,VALID,0,
2012-01-13, 00:02:04,VALID,917.785,VALID,0,VALID,95.7654,VALID,0.107441,VALID,20.4228,VALID,343,VALID,0.0234375,
2012-01-13, 00:03:04,VALID,917.788,VALID,0,VALID,95.7501,VALID,0.107441,VALID,20.4213,VALID,343,VALID,0,
2012-01-13, 00:04:04,VALID,917.795,VALID,0.2,VALID,95.7654,VALID,0,VALID,20.4423,VALID,343,VALID,0,
2012-01-13, 00:05:04,VALID,917.823,VALID,0,VALID,95.7272,VALID,0,VALID,20.4423,VALID,343,VALID,0,
2012-01-13, 00:06:04,VALID,917.82,VALID,0,VALID,95.6662,VALID,0.107441,VALID,20.4228,VALID,343,VALID,0,
2012-01-13, 00:07:04,VALID,917.81,VALID,0,VALID,95.5595,VALID,0,VALID,20.3643,VALID,343,VALID,0,
2012-01-13, 00:08:04,VALID,917.831,VALID,0,VALID,95.5443,VALID,0,VALID,20.3238,VALID,343,VALID,0.647656,
2012-01-13, 00:09:04,VALID,917.833,VALID,0,VALID,95.6129,VALID,0,VALID,20.3253,VALID,343,VALID,0.921484,
2012-01-13, 00:10:04,VALID,917.831,VALID,0,VALID,95.4604,VALID,0.107441,VALID,20.2668,VALID,7,VALID,0.994141,
2012-01-13, 00:11:04,VALID,917.808,VALID,0,VALID,95.4757,VALID,0,VALID,20.2278,VALID,7,VALID,0.603906,
2012-01-13, 00:12:04,VALID,917.819,VALID,0,VALID,95.6129,VALID,0,VALID,20.2083,VALID,7,VALID,0.755859,
2012-01-13, 00:13:04,VALID,917.814,VALID,0,VALID,95.59,VALID,0,VALID,20.1483,VALID,7,VALID,1.01055,
2012-01-13, 00:14:04,VALID,917.806,VALID,0,VALID,95.7196,VALID,0,VALID,20.1303,VALID,7,VALID,0.784766,
2012-01-13, 00:15:04,VALID,917.829,VALID,0,VALID,95.8187,VALID,0.107441,VALID,20.1108,VALID,7,VALID,0.814453,
2012-01-13, 00:16:04,VALID,917.824,VALID,0,VALID,95.9483,VALID,0,VALID,20.0913,VALID,7,VALID,0.764453,
2012-01-13, 00:17:04,VALID,917.834,VALID,0,VALID,96.0169,VALID,0,VALID,20.0718,VALID,7,VALID,0.780469,
2012-01-13, 00:18:04,VALID,917.818,VALID,0.2,VALID,96.1008,VALID,0.107441,VALID,20.0523,VALID,7,VALID,1.15742,
2012-01-13, 00:19:04,VALID,917.832,VALID,0,VALID,96.2075,VALID,0.107441,VALID,20.0523,VALID,7,VALID,0.853516,
2012-01-13, 00:20:04,VALID,917.858,VALID,0,VALID,96.238,VALID,0,VALID,20.0133,VALID,7,VALID,1.02773,
2012-01-13, 00:21:04,VALID,917.872,VALID,0,VALID,96.2837,VALID,0,VALID,20.0118,VALID,7,VALID,1.11484,
2012-01-13, 00:22:04,VALID,917.883,VALID,0,VALID,96.2761,VALID,0,VALID,20.0328,VALID,7,VALID,1.18555,
2012-01-13, 00:23:04,VALID,917.869,VALID,0,VALID,96.2228,VALID,0,VALID,20.0133,VALID,40,VALID,1.19648,
2012-01-13, 00:24:04,VALID,917.912,VALID,0,VALID,96.3295,VALID,0,VALID,20.0523,VALID,40,VALID,1.06836,
2012-01-13, 00:25:04,VALID,917.891,VALID,0,VALID,96.2837,VALID,0,VALID,20.0313,VALID,41,VALID,1.15234,
2012-01-13, 00:26:04,VALID,917.896,VALID,0,VALID,96.1465,VALID,0,VALID,20.0718,VALID,33,VALID,0.880078,
2012-01-13, 00:27:04,VALID,917.903,VALID,0,VALID,96.0398,VALID,0.107441,VALID,20.1108,VALID,33,VALID,1.1125,
2012-01-13, 00:28:04,VALID,917.895,VALID,0,VALID,95.9864,VALID,0.107441,VALID,20.1303,VALID,33,VALID,1.27188,
2012-01-13, 00:29:04,VALID,917.897,VALID,0,VALID,95.9407,VALID,0,VALID,20.1303,VALID,21,VALID,1.50508,
2012-01-13, 00:30:04,VALID,917.875,VALID,0,VALID,95.8873,VALID,0,VALID,20.1303,VALID,16,VALID,1.60898,
2012-01-13, 00:31:04,VALID,917.846,VALID,0,VALID,95.8263,VALID,0,VALID,20.1108,VALID,8,VALID,1.07461,
2012-01-13, 00:32:04,VALID,917.848,VALID,0,VALID,95.9483,VALID,0.107441,VALID,20.0898,VALID,17,VALID,1.23867,
2012-01-13, 00:33:04,VALID,917.838,VALID,0,VALID,96.0398,VALID,0,VALID,20.1303,VALID,49,VALID,1.36445,
2012-01-13, 00:34:04,VALID,917.866,VALID,0,VALID,95.9102,VALID,0.107441,VALID,20.0913,VALID,36,VALID,1.34531,
2012-01-13, 00:35:04,VALID,917.872,VALID,0,VALID,95.9483,VALID,0,VALID,20.0703,VALID,3,VALID,0.571875,
2012-01-13, 00:36:04,VALID,917.866,VALID,0,VALID,95.9026,VALID,0,VALID,20.0718,VALID,3,VALID,0.736328,
2012-01-13, 00:37:04,VALID,917.859,VALID,0,VALID,95.9407,VALID,0,VALID,20.0718,VALID,3,VALID,1.00781,
2012-01-13, 00:38:04,VALID,917.839,VALID,0,VALID,95.9254,VALID,0,VALID,20.0913,VALID,16,VALID,1.32266,
2012-01-13, 00:39:04,VALID,917.852,VALID,0,VALID,95.8873,VALID,0,VALID,20.0913,VALID,16,VALID,0.810156,
2012-01-13, 00:40:04,VALID,917.832,VALID,0,VALID,95.8492,VALID,0,VALID,20.1108,VALID,352,VALID,1.02422,
2012-01-13, 00:41:04,VALID,917.841,VALID,0,VALID,95.8035,VALID,0,VALID,20.1303,VALID,352,VALID,0.780859,
2012-01-13, 00:42:04,VALID,917.804,VALID,0,VALID,95.7349,VALID,0,VALID,20.1318,VALID,352,VALID,1.4082,
2012-01-13, 00:43:04,VALID,917.782,VALID,0,VALID,95.7501,VALID,0,VALID,20.1108,VALID,19,VALID,1.16133,
2012-01-13, 00:44:04,VALID,917.772,VALID,0,VALID,95.7425,VALID,0,VALID,20.1318,VALID,19,VALID,0.978906,
2012-01-13, 00:45:04,VALID,917.737,VALID,0,VALID,95.6662,VALID,0,VALID,20.1318,VALID,19,VALID,0.733984,
2012-01-13, 00:46:04,VALID,917.714,VALID,0,VALID,95.6815,VALID,0,VALID,20.1318,VALID,19,VALID,0.809375,
2012-01-13, 00:47:04,VALID,917.697,VALID,0,VALID,95.6967,VALID,0,VALID,20.1318,VALID,19,VALID,0.456641,
2012-01-13, 00:48:04,VALID,917.676,VALID,0.2,VALID,95.6357,VALID,0,VALID,20.1108,VALID,19,VALID,0.622656,
2012-01-13, 00:49:04,VALID,917.622,VALID,0,VALID,95.7044,VALID,0,VALID,20.1318,VALID,19,VALID,0.198828,
2012-01-13, 00:50:04,VALID,917.615,VALID,0,VALID,95.7577,VALID,0,VALID,20.1108,VALID,19,VALID,0.160156,
2012-01-13, 00:51:04,VALID,917.555,VALID,0,VALID,95.8187,VALID,0,VALID,20.1108,VALID,19,VALID,0.0605469,
2012-01-13, 00:52:04,VALID,917.498,VALID,0,VALID,95.8187,VALID,0,VALID,20.1318,VALID,19,VALID,0.138281,
2012-01-13, 00:53:04,VALID,917.453,VALID,0,VALID,95.8263,VALID,0,VALID,20.1318,VALID,19,VALID,0.445313,
2012-01-13, 00:54:04,VALID,917.431,VALID,0,VALID,95.8645,VALID,0,VALID,20.1123,VALID,19,VALID,0.637109,
2012-01-13, 00:55:04,VALID,917.403,VALID,0,VALID,95.9026,VALID,0,VALID,20.0718,VALID,19,VALID,0.635156,
2012-01-13, 00:56:04,VALID,917.407,VALID,0,VALID,95.9254,VALID,0,VALID,20.0928,VALID,19,VALID,0.625391,
2012-01-13, 00:57:04,VALID,917.382,VALID,0,VALID,95.8721,VALID,0,VALID,20.0523,VALID,18,VALID,0.660547,
2012-01-13, 00:58:04,VALID,917.396,VALID,0,VALID,95.8873,VALID,0,VALID,20.0343,VALID,19,VALID,0.573047,
2012-01-13, 00:59:04,VALID,917.376,VALID,0,VALID,95.9254,VALID,0.107441,VALID,20.0523,VALID,19,VALID,0.377734,
2012-01-13, 01:00:04,VALID,917.37,VALID,0,VALID,95.9864,VALID,0,VALID,20.0718,VALID,19,VALID,0.224609,
2012-01-13, 01:01:04,VALID,917.355,VALID,0,VALID,95.9636,VALID,0,VALID,20.0718,VALID,19,VALID,0.341016,
2012-01-13, 01:02:04,VALID,917.333,VALID,0.2,VALID,95.9636,VALID,0,VALID,20.0538,VALID,19,VALID,0.469531,
2012-01-13, 01:03:04,VALID,917.328,VALID,0,VALID,96.0169,VALID,0,VALID,20.0328,VALID,19,VALID,0.482031,
2012-01-13, 01:04:04,VALID,917.375,VALID,0,VALID,95.9864,VALID,0,VALID,20.0328,VALID,19,VALID,0.303516,
2012-01-13, 01:05:04,VALID,917.389,VALID,0,VALID,96.0398,VALID,0,VALID,20.0523,VALID,19,VALID,0.583594,
2012-01-13, 01:06:04,VALID,917.379,VALID,0,VALID,96.0703,VALID,0,VALID,20.0328,VALID,19,VALID,0.518359,
2012-01-13, 01:07:04,VALID,917.393,VALID,0,VALID,96.0627,VALID,0,VALID,20.0523,VALID,19,VALID,0.218359,
2012-01-13, 01:08:04,VALID,917.425,VALID,0,VALID,96.0627,VALID,0.107441,VALID,20.0718,VALID,19,VALID,0.392188,
2012-01-13, 01:09:04,VALID,917.412,VALID,0,VALID,96.0855,VALID,0,VALID,20.0523,VALID,19,VALID,0.146094,
2012-01-13, 01:10:04,VALID,917.386,VALID,0,VALID,96.116,VALID,0,VALID,20.0718,VALID,19,VALID,0,
2012-01-13, 01:11:04,VALID,917.393,VALID,0,VALID,96.2151,VALID,0,VALID,20.1108,VALID,19,VALID,0,
2012-01-13, 01:12:04,VALID,917.403,VALID,0,VALID,96.2304,VALID,0,VALID,20.1303,VALID,19,VALID,0,
2012-01-13, 01:13:04,VALID,917.395,VALID,0,VALID,96.1618,VALID,0.107441,VALID,20.1123,VALID,19,VALID,0,
2012-01-13, 01:14:04,VALID,917.387,VALID,0,VALID,96.1465,VALID,0,VALID,20.0913,VALID,19,VALID,0.209375,
2012-01-13, 01:15:04,VALID,917.365,VALID,0,VALID,96.1313,VALID,0,VALID,20.0718,VALID,19,VALID,0,
2012-01-13, 01:16:04,VALID,917.337,VALID,0,VALID,96.0627,VALID,0,VALID,20.0313,VALID,19,VALID,0,
2012-01-13, 01:17:04,VALID,917.305,VALID,0,VALID,96.0245,VALID,0,VALID,20.0133,VALID,19,VALID,0.0078125,
2012-01-13, 01:18:04,VALID,917.297,VALID,0,VALID,96.0169,VALID,0,VALID,19.9743,VALID,19,VALID,0.240625,
2012-01-13, 01:19:04,VALID,917.296,VALID,0,VALID,96.0245,VALID,0,VALID,19.9548,VALID,19,VALID,0.360156,
2012-01-13, 01:20:04,VALID,917.22,VALID,0.2,VALID,96.0017,VALID,0,VALID,19.9548,VALID,19,VALID,0.617188,
2012-01-13, 01:21:04,VALID,917.225,VALID,0,VALID,95.9559,VALID,0,VALID,19.9548,VALID,19,VALID,0.567187,
2012-01-13, 01:22:04,VALID,917.216,VALID,0,VALID,95.9331,VALID,0,VALID,19.9143,VALID,19,VALID,0.474609,
2012-01-13, 01:23:04,VALID,917.174,VALID,0,VALID,95.8873,VALID,0,VALID,19.9548,VALID,19,VALID,0.0820313,
2012-01-13, 01:24:04,VALID,917.154,VALID,0,VALID,95.8645,VALID,0,VALID,19.9548,VALID,19,VALID,0.223438,
2012-01-13, 01:25:04,VALID,917.141,VALID,0,VALID,95.8645,VALID,0,VALID,19.9338,VALID,19,VALID,0.354688,
2012-01-13, 01:26:04,VALID,917.131,VALID,0,VALID,95.8492,VALID,0,VALID,19.9338,VALID,19,VALID,0.383203,
2012-01-13, 01:27:04,VALID,917.082,VALID,0,VALID,95.8568,VALID,0,VALID,19.9743,VALID,19,VALID,0.0371094,
2012-01-13, 01:28:04,VALID,917.11,VALID,0,VALID,95.7958,VALID,0.107441,VALID,19.9743,VALID,19,VALID,0.297266,
2012-01-13, 01:29:04,VALID,917.079,VALID,0,VALID,95.8035,VALID,0,VALID,19.9368,VALID,19,VALID,0.402734,
2012-01-13, 01:30:04,VALID,917.076,VALID,0,VALID,95.8645,VALID,0,VALID,19.9563,VALID,19,VALID,0.18125,
2012-01-13, 01:31:04,VALID,917.051,VALID,0,VALID,95.8645,VALID,0,VALID,19.9173,VALID,19,VALID,0.503125,
2012-01-13, 01:32:04,VALID,917.044,VALID,0,VALID,95.834,VALID,0,VALID,19.8768,VALID,19,VALID,0.634375,
2012-01-13, 01:33:04,VALID,917.041,VALID,0,VALID,95.8873,VALID,0,VALID,19.8783,VALID,19,VALID,0.750391,
2012-01-13, 01:34:04,VALID,916.972,VALID,0,VALID,95.9636,VALID,0,VALID,19.8588,VALID,19,VALID,0.913672,
2012-01-13, 01:35:04,VALID,916.991,VALID,0,VALID,96.0398,VALID,0,VALID,19.8198,VALID,19,VALID,0.742969,
2012-01-13, 01:36:04,VALID,917.007,VALID,0,VALID,96.1389,VALID,0,VALID,19.8198,VALID,19,VALID,0.703906,
2012-01-13, 01:37:04,VALID,916.959,VALID,0,VALID,96.2304,VALID,0,VALID,19.7988,VALID,19,VALID,0.623438,
2012-01-13, 01:38:04,VALID,916.955,VALID,0,VALID,96.299,VALID,0,VALID,19.8003,VALID,19,VALID,0.600781,
2012-01-13, 01:39:04,VALID,916.977,VALID,0,VALID,96.36,VALID,0,VALID,19.8003,VALID,19,VALID,0.691797,
2012-01-13, 01:40:04,VALID,916.964,VALID,0,VALID,96.4133,VALID,0,VALID,19.7808,VALID,19,VALID,0.210938,
2012-01-13, 01:41:04,VALID,916.923,VALID,0,VALID,96.4819,VALID,0,VALID,19.7598,VALID,19,VALID,0.404297,
2012-01-13, 01:42:04,VALID,916.921,VALID,0,VALID,96.5201,VALID,0,VALID,19.7808,VALID,19,VALID,0.671484,
2012-01-13, 01:43:04,VALID,916.883,VALID,0,VALID,96.5734,VALID,0,VALID,19.7808,VALID,19,VALID,0.617969,
2012-01-13, 01:44:04,VALID,916.898,VALID,0,VALID,96.6192,VALID,0.107441,VALID,19.7598,VALID,19,VALID,0.823828,
2012-01-13, 01:45:04,VALID,916.896,VALID,0,VALID,96.642,VALID,0,VALID,19.7598,VALID,19,VALID,0.414453,
2012-01-13, 01:46:04,VALID,916.88,VALID,0,VALID,96.6725,VALID,0,VALID,19.7403,VALID,19,VALID,0.464844,
2012-01-13, 01:47:04,VALID,916.894,VALID,0,VALID,96.6954,VALID,0,VALID,19.7403,VALID,19,VALID,0.163672,
2012-01-13, 01:48:04,VALID,916.922,VALID,0,VALID,96.7411,VALID,0.107441,VALID,19.7403,VALID,19,VALID,0.0113281,
2012-01-13, 01:49:04,VALID,916.915,VALID,0,VALID,96.7869,VALID,0.107441,VALID,19.7208,VALID,19,VALID,0,
2012-01-13, 01:50:04,VALID,916.856,VALID,0,VALID,96.8174,VALID,0,VALID,19.7403,VALID,19,VALID,0,
2012-01-13, 01:51:04,VALID,916.84,VALID,0,VALID,96.8326,VALID,0.107441,VALID,19.7403,VALID,19,VALID,0,
2012-01-13, 01:52:04,VALID,916.828,VALID,0,VALID,96.8326,VALID,0,VALID,19.7403,VALID,19,VALID,0,
2012-01-13, 01:53:04,VALID,916.821,VALID,0,VALID,96.886,VALID,0.107441,VALID,19.7598,VALID,19,VALID,0,
2012-01-13, 01:54:04,VALID,916.793,VALID,0,VALID,96.8936,VALID,0.107441,VALID,19.7793,VALID,19,VALID,0,
2012-01-13, 01:55:04,VALID,916.794,VALID,0,VALID,96.9089,VALID,0,VALID,19.7793,VALID,19,VALID,0,
2012-01-13, 01:56:04,VALID,916.773,VALID,0,VALID,96.9165,VALID,0,VALID,19.7598,VALID,19,VALID,0,
2012-01-13, 01:57:04,VALID,916.711,VALID,0,VALID,96.9394,VALID,0,VALID,19.7403,VALID,19,VALID,0.222266,
2012-01-13, 01:58:04,VALID,916.717,VALID,0,VALID,96.9394,VALID,0,VALID,19.7403,VALID,19,VALID,0,
2012-01-13, 01:59:04,VALID,916.725,VALID,0,VALID,96.9089,VALID,0.107441,VALID,19.7403,VALID,19,VALID,0.239844,
2012-01-13, 02:00:04,VALID,916.744,VALID,0,VALID,96.8707,VALID,0.107441,VALID,19.7013,VALID,19,VALID,0.0367187,
2012-01-13, 02:01:04,VALID,916.715,VALID,0,VALID,96.8326,VALID,0,VALID,19.6233,VALID,19,VALID,0,
2012-01-13, 02:02:04,VALID,916.732,VALID,0,VALID,96.8174,VALID,0.107441,VALID,19.6233,VALID,19,VALID,0.230469,
2012-01-13, 02:03:04,VALID,916.748,VALID,0,VALID,96.8403,VALID,0,VALID,19.5648,VALID,19,VALID,0.552344,
2012-01-13, 02:04:04,VALID,916.714,VALID,0,VALID,96.8707,VALID,0,VALID,19.5663,VALID,19,VALID,0.641016,
2012-01-13, 02:05:04,VALID,916.702,VALID,0,VALID,96.9165,VALID,0.107441,VALID,19.5858,VALID,19,VALID,0.595703,
2012-01-13, 02:06:04,VALID,916.688,VALID,0,VALID,96.8936,VALID,0.107441,VALID,19.5453,VALID,19,VALID,0.489453,
2012-01-13, 02:07:04,VALID,916.677,VALID,0,VALID,96.8936,VALID,0.107441,VALID,19.5258,VALID,19,VALID,0.460156,
2012-01-13, 02:08:04,VALID,916.681,VALID,0,VALID,96.9012,VALID,0,VALID,19.5273,VALID,19,VALID,0.367578,
2012-01-13, 02:09:04,VALID,916.7,VALID,0,VALID,96.8936,VALID,0.107441,VALID,19.5063,VALID,19,VALID,0.307031,
2012-01-13, 02:10:04,VALID,916.675,VALID,0,VALID,96.9394,VALID,0.107441,VALID,19.5258,VALID,19,VALID,0.553125,
2012-01-13, 02:11:04,VALID,916.667,VALID,0,VALID,96.9927,VALID,0.107441,VALID,19.5453,VALID,19,VALID,0.296094,
2012-01-13, 02:12:04,VALID,916.649,VALID,0,VALID,96.9851,VALID,0.107441,VALID,19.5438,VALID,19,VALID,0.103125,
2012-01-13, 02:13:04,VALID,916.633,VALID,0,VALID,96.9622,VALID,0,VALID,19.5648,VALID,19,VALID,0,
2012-01-13, 02:14:04,VALID,916.584,VALID,0,VALID,96.9622,VALID,0,VALID,19.5843,VALID,19,VALID,0,
2012-01-13, 02:15:04,VALID,916.578,VALID,0,VALID,96.9317,VALID,0.107441,VALID,19.6038,VALID,19,VALID,0,
2012-01-13, 02:16:04,VALID,916.622,VALID,0,VALID,96.8936,VALID,0,VALID,19.6038,VALID,19,VALID,0,
2012-01-13, 02:17:04,VALID,916.59,VALID,0,VALID,96.8707,VALID,0,VALID,19.6053,VALID,19,VALID,0,
2012-01-13, 02:18:04,VALID,916.607,VALID,0,VALID,96.8326,VALID,0.107441,VALID,19.6038,VALID,19,VALID,0,
2012-01-13, 02:19:04,VALID,916.569,VALID,0,VALID,96.7945,VALID,0.107441,VALID,19.6053,VALID,19,VALID,0,
2012-01-13, 02:20:04,VALID,916.568,VALID,0,VALID,96.7945,VALID,0,VALID,19.5858,VALID,19,VALID,0,
2012-01-13, 02:21:04,VALID,916.565,VALID,0,VALID,96.7869,VALID,0,VALID,19.6038,VALID,19,VALID,0.065625,
2012-01-13, 02:22:04,VALID,916.559,VALID,0,VALID,96.764,VALID,0.107441,VALID,19.6038,VALID,19,VALID,0.395703,
2012-01-13, 02:23:04,VALID,916.531,VALID,0,VALID,96.6268,VALID,0,VALID,19.6053,VALID,19,VALID,0.757813,
2012-01-13, 02:24:04,VALID,916.553,VALID,0,VALID,96.4591,VALID,0.107441,VALID,19.5258,VALID,19,VALID,0.853516,
2012-01-13, 02:25:04,VALID,916.547,VALID,0,VALID,96.4972,VALID,0.107441,VALID,19.5063,VALID,19,VALID,0.80625,
2012-01-13, 02:26:04,VALID,916.545,VALID,0,VALID,96.5201,VALID,0,VALID,19.4673,VALID,19,VALID,0.673047,
2012-01-13, 02:27:04,VALID,916.521,VALID,0,VALID,96.5353,VALID,0,VALID,19.4673,VALID,19,VALID,0.543359,
2012-01-13, 02:28:04,VALID,916.536,VALID,0,VALID,96.6039,VALID,0,VALID,19.4478,VALID,19,VALID,0.538281,
2012-01-13, 02:29:04,VALID,916.503,VALID,0,VALID,96.5429,VALID,0,VALID,19.4493,VALID,19,VALID,0.358984,
2012-01-13, 02:30:04,VALID,916.463,VALID,0,VALID,96.4286,VALID,0,VALID,19.3908,VALID,19,VALID,0.597266,
2012-01-13, 02:31:04,VALID,916.438,VALID,0,VALID,96.4743,VALID,0.107441,VALID,19.3308,VALID,19,VALID,0.684375,
2012-01-13, 02:32:04,VALID,916.378,VALID,0,VALID,96.6344,VALID,0,VALID,19.3893,VALID,19,VALID,0.8375,
2012-01-13, 02:33:04,VALID,916.357,VALID,0,VALID,96.7107,VALID,0.107441,VALID,19.3893,VALID,19,VALID,0.737891,
2012-01-13, 02:34:04,VALID,916.343,VALID,0,VALID,96.7183,VALID,0.107441,VALID,19.4103,VALID,19,VALID,0.536719,
2012-01-13, 02:35:04,VALID,916.309,VALID,0,VALID,96.6878,VALID,0,VALID,19.4088,VALID,19,VALID,0.458984,
2012-01-13, 02:36:04,VALID,916.272,VALID,0,VALID,96.7259,VALID,0,VALID,19.3893,VALID,18,VALID,0.267188,
2012-01-13, 02:37:04,VALID,916.263,VALID,0,VALID,96.7793,VALID,0,VALID,19.4283,VALID,19,VALID,0.336719,
2012-01-13, 02:38:04,VALID,916.27,VALID,0,VALID,96.7945,VALID,0.107441,VALID,19.4478,VALID,19,VALID,0.285547,
2012-01-13, 02:39:04,VALID,916.269,VALID,0,VALID,96.7411,VALID,0,VALID,19.4283,VALID,19,VALID,0.625,
2012-01-13, 02:40:04,VALID,916.245,VALID,0,VALID,96.7183,VALID,0,VALID,19.3893,VALID,19,VALID,0.851563,
2012-01-13, 02:41:04,VALID,916.248,VALID,0,VALID,96.764,VALID,0.107441,VALID,19.4088,VALID,19,VALID,0.935156,
2012-01-13, 02:42:04,VALID,916.244,VALID,0,VALID,96.6344,VALID,0,VALID,19.3503,VALID,19,VALID,0.627734,
2012-01-13, 02:43:04,VALID,916.273,VALID,0,VALID,96.7259,VALID,0.107441,VALID,19.2904,VALID,19,VALID,0.390625,
2012-01-13, 02:44:04,VALID,916.255,VALID,0,VALID,96.8174,VALID,0,VALID,19.3294,VALID,19,VALID,0.205469,
2012-01-13, 02:45:04,VALID,916.219,VALID,0,VALID,96.8479,VALID,0,VALID,19.3489,VALID,19,VALID,0.197656,
2012-01-13, 02:46:04,VALID,916.211,VALID,0,VALID,96.8403,VALID,0,VALID,19.3099,VALID,19,VALID,0.748828,
2012-01-13, 02:47:04,VALID,916.188,VALID,0,VALID,96.8326,VALID,0,VALID,19.3518,VALID,19,VALID,1.04844,
2012-01-13, 02:48:04,VALID,916.183,VALID,0,VALID,96.886,VALID,0,VALID,19.3698,VALID,19,VALID,0.703125,
2012-01-13, 02:49:04,VALID,916.193,VALID,0,VALID,96.7488,VALID,0,VALID,19.2918,VALID,19,VALID,0.110547,
2012-01-13, 02:50:04,VALID,916.178,VALID,0,VALID,96.8174,VALID,0.107441,VALID,19.2933,VALID,19,VALID,0.386719,
2012-01-13, 02:51:04,VALID,916.161,VALID,0,VALID,96.9317,VALID,0,VALID,19.3113,VALID,19,VALID,0.727734,
2012-01-13, 02:52:04,VALID,916.148,VALID,0,VALID,96.9546,VALID,0,VALID,19.3323,VALID,19,VALID,0.503125,
2012-01-13, 02:53:04,VALID,916.179,VALID,0,VALID,96.9698,VALID,0,VALID,19.3113,VALID,19,VALID,0.475,
2012-01-13, 02:54:04,VALID,916.133,VALID,0,VALID,97.0156,VALID,0,VALID,19.2904,VALID,19,VALID,0.690625,
2012-01-13, 02:55:04,VALID,916.146,VALID,0,VALID,97.0308,VALID,0,VALID,19.3518,VALID,19,VALID,0.559766,
2012-01-13, 02:56:04,VALID,916.181,VALID,0,VALID,97.0461,VALID,0.107441,VALID,19.3113,VALID,19,VALID,0.388281,
2012-01-13, 02:57:04,VALID,916.211,VALID,0,VALID,97.0613,VALID,0.107441,VALID,19.3518,VALID,19,VALID,0.317578,
2012-01-13, 02:58:04,VALID,916.21,VALID,0,VALID,97.0842,VALID,0,VALID,19.2918,VALID,19,VALID,0,
2012-01-13, 02:59:04,VALID,916.222,VALID,0,VALID,96.9165,VALID,0.107441,VALID,19.2543,VALID,19,VALID,0.316797,
2012-01-13, 03:00:04,VALID,916.201,VALID,0,VALID,96.9622,VALID,0,VALID,19.2139,VALID,19,VALID,0.324609,
2012-01-13, 03:01:04,VALID,916.194,VALID,0,VALID,97.069,VALID,0.107441,VALID,19.2348,VALID,19,VALID,0.259766,
2012-01-13, 03:02:04,VALID,916.176,VALID,0,VALID,97.1223,VALID,0,VALID,19.2139,VALID,19,VALID,0.255469,
2012-01-13, 03:03:04,VALID,916.197,VALID,0,VALID,97.1452,VALID,0,VALID,19.2139,VALID,19,VALID,0.351563,
2012-01-13, 03:04:04,VALID,916.162,VALID,0,VALID,97.1757,VALID,0.107441,VALID,19.2528,VALID,19,VALID,0.658203,
2012-01-13, 03:05:04,VALID,916.174,VALID,0,VALID,97.1909,VALID,0.107441,VALID,19.2319,VALID,19,VALID,0.766016,
2012-01-13, 03:06:04,VALID,916.217,VALID,0,VALID,97.2214,VALID,0,VALID,19.2933,VALID,19,VALID,0.627734,
2012-01-13, 03:07:04,VALID,916.231,VALID,0,VALID,97.2367,VALID,0.107441,VALID,19.2709,VALID,19,VALID,0.658594,
2012-01-13, 03:08:04,VALID,916.199,VALID,0,VALID,97.2138,VALID,0,VALID,19.2095,VALID,19,VALID,0.536328,
2012-01-13, 03:09:04,VALID,916.196,VALID,0,VALID,97.1833,VALID,0,VALID,19.2738,VALID,19,VALID,0.715625,
2012-01-13, 03:10:04,VALID,916.198,VALID,0,VALID,97.1909,VALID,0,VALID,19.2334,VALID,19,VALID,0.570703,
2012-01-13, 03:11:04,VALID,916.207,VALID,0,VALID,97.1909,VALID,0,VALID,19.2348,VALID,19,VALID,0.605469,
2012-01-13, 03:12:04,VALID,916.232,VALID,0,VALID,97.1909,VALID,0,VALID,19.1958,VALID,19,VALID,0.662891,
2012-01-13, 03:13:04,VALID,916.194,VALID,0,VALID,97.2443,VALID,0,VALID,19.1958,VALID,19,VALID,0.712109,
2012-01-13, 03:14:04,VALID,916.187,VALID,0,VALID,97.229,VALID,0,VALID,19.1749,VALID,19,VALID,0.484766,
2012-01-13, 03:15:04,VALID,916.16,VALID,0,VALID,97.29,VALID,0,VALID,19.1944,VALID,19,VALID,0.783594,
2012-01-13, 03:16:04,VALID,916.175,VALID,0,VALID,97.3053,VALID,0,VALID,19.2153,VALID,19,VALID,0.776953,
2012-01-13, 03:17:04,VALID,916.136,VALID,0,VALID,97.3205,VALID,0,VALID,19.2153,VALID,19,VALID,0.930078,
2012-01-13, 03:18:04,VALID,916.125,VALID,0,VALID,97.3434,VALID,0,VALID,19.2334,VALID,19,VALID,1.0375,
2012-01-13, 03:19:04,VALID,916.117,VALID,0,VALID,97.4196,VALID,0,VALID,19.2723,VALID,124,VALID,1.2293,
2012-01-13, 03:20:04,VALID,916.088,VALID,0,VALID,97.4349,VALID,0,VALID,19.3323,VALID,124,VALID,0.748047,
2012-01-13, 03:21:04,VALID,916.1,VALID,0,VALID,97.4196,VALID,0,VALID,19.3518,VALID,124,VALID,0.851172,
2012-01-13, 03:22:04,VALID,916.092,VALID,0,VALID,97.3815,VALID,0,VALID,19.3323,VALID,124,VALID,0.438672,
2012-01-13, 03:23:04,VALID,916.07,VALID,0,VALID,97.2977,VALID,0,VALID,19.2738,VALID,124,VALID,0.217187,
2012-01-13, 03:24:04,VALID,916.081,VALID,0,VALID,97.3358,VALID,0,VALID,19.2543,VALID,124,VALID,0,
2012-01-13, 03:25:04,VALID,916.083,VALID,0,VALID,97.3739,VALID,0,VALID,19.2528,VALID,124,VALID,0,
2012-01-13, 03:26:04,VALID,916.078,VALID,0,VALID,97.4044,VALID,0,VALID,19.2528,VALID,124,VALID,0,
2012-01-13, 03:27:04,VALID,916.02,VALID,0,VALID,97.4425,VALID,0,VALID,19.2918,VALID,124,VALID,0,
2012-01-13, 03:28:04,VALID,916.036,VALID,0,VALID,97.4577,VALID,0,VALID,19.3323,VALID,124,VALID,0,
2012-01-13, 03:29:04,VALID,916.062,VALID,0,VALID,97.4349,VALID,0,VALID,19.3518,VALID,124,VALID,0,
2012-01-13, 03:30:04,VALID,916.026,VALID,0,VALID,97.412,VALID,0,VALID,19.2918,VALID,124,VALID,0.263672,
2012-01-13, 03:31:04,VALID,916.072,VALID,0,VALID,97.3815,VALID,0,VALID,19.2723,VALID,124,VALID,0.523828,
2012-01-13, 03:32:04,VALID,916.101,VALID,0,VALID,97.4196,VALID,0.107441,VALID,19.2109,VALID,124,VALID,0.609375,
2012-01-13, 03:33:04,VALID,916.137,VALID,0,VALID,97.4196,VALID,0,VALID,19.2543,VALID,124,VALID,0.528125,
2012-01-13, 03:34:04,VALID,916.162,VALID,0,VALID,97.4196,VALID,0,VALID,19.2543,VALID,124,VALID,0.672656,
2012-01-13, 03:35:04,VALID,916.124,VALID,0,VALID,97.4501,VALID,0,VALID,19.2543,VALID,124,VALID,0.68125,
2012-01-13, 03:36:04,VALID,916.15,VALID,0,VALID,97.4882,VALID,0.107441,VALID,19.2738,VALID,124,VALID,0.720312,
2012-01-13, 03:37:04,VALID,916.164,VALID,0,VALID,97.473,VALID,0,VALID,19.2528,VALID,124,VALID,0.703516,
2012-01-13, 03:38:04,VALID,916.176,VALID,0,VALID,97.4959,VALID,0,VALID,19.2918,VALID,124,VALID,0.707031,
2012-01-13, 03:39:04,VALID,916.176,VALID,0,VALID,97.5035,VALID,0,VALID,19.2918,VALID,124,VALID,0.803906,
2012-01-13, 03:40:04,VALID,916.219,VALID,0,VALID,97.5264,VALID,0.107441,VALID,19.3308,VALID,124,VALID,0.821484,
2012-01-13, 03:41:04,VALID,916.219,VALID,0,VALID,97.5264,VALID,0,VALID,19.3113,VALID,124,VALID,0.661328,
2012-01-13, 03:42:04,VALID,916.228,VALID,0,VALID,97.534,VALID,0,VALID,19.3308,VALID,124,VALID,0.667969,
2012-01-13, 03:43:04,VALID,916.238,VALID,0,VALID,97.534,VALID,0,VALID,19.3308,VALID,124,VALID,0.757031,
2012-01-13, 03:44:04,VALID,916.267,VALID,0,VALID,97.5187,VALID,0,VALID,19.3713,VALID,124,VALID,0.515234,
2012-01-13, 03:45:04,VALID,916.276,VALID,0,VALID,97.5264,VALID,0,VALID,19.3698,VALID,124,VALID,0.246094,